Ellensburg, WA

3:01 PM PDT on August 21, 2017 (GMT -0700)
Bowers

Weather History for KELN - March, 2013

Change the Weather History Date:

Tuesday, March 5, 2013

  Actual Average (KYKM) Record (KYKM)
Temperature  
Mean Temperature 32 °F -  
Max Temperature 39 °F 52 °F 66 °F (2014)
Min Temperature 26 °F 28 °F 7 °F (1955)
Degree Days  
Heating Degree Days 32    
Moisture  
Dew Point 27 °F    
Average Humidity 75    
Maximum Humidity 85    
Minimum Humidity 50    
Precipitation  
Precipitation 0.02 in - - ()
Sea Level Pressure  
Sea Level Pressure 29.91 in    
Wind  
Wind Speed 3 mph (NW)    
Max Wind Speed 7 mph    
Max Gust Speed -    
Visibility 7 miles    
Events Snow    
Averages and records for this station are not official NWS values.
T = Trace of Precipitation, MM = Missing Value Source: NWS Daily Summary

Daily Weather History Graph

Daily Weather History Graph

Search for Another Location

Airport or City:

Trip Planner

Search our weather history database for the weather conditions in past years. The results will help you decide how hot, cold, wet, or windy it might be!

Date:

Astronomy

Mar. 05, 2013 Rise Set
Actual Time 6:33 AM PST 5:53 PM PST
Civil Twilight 6:03 AM PST 6:24 PM PST
Nautical Twilight 5:28 AM PST 6:59 PM PST
Astronomical Twilight 4:52 AM PST 7:35 PM PST
Moon 2:08 AM PST (3/5) 11:20 AM PST (3/5)
Length of Visible Light 12h 21m
Length of Day
11h 20m
Last Quarter, 39% of the Moon is Illuminated
Mar 5
Last Quarter
Mar 11
New
Mar 19
First Quarter
Mar 27
Full
Apr 2
Last Quarter

Hourly Weather History & Observations

Time (PST) Temp. Windchill Dew Point Humidity Pressure Visibility Wind Dir Wind Speed Gust Speed Precip Events Conditions
12:53 AM 27.0 °F 23.0 °F 19.0 °F 72% 30.04 in 10.0 mi NE 3.5 mph - N/A   Mostly Cloudy
1:53 AM 30.0 °F - 19.0 °F 64% 30.02 in 10.0 mi Calm Calm - N/A   Clear
2:53 AM 26.1 °F 21.9 °F 18.0 °F 71% 30.02 in 10.0 mi East 3.5 mph - N/A   Clear
3:53 AM 27.0 °F 20.5 °F 19.0 °F 72% 30.00 in 10.0 mi East 5.8 mph - N/A   Partly Cloudy
4:53 AM 26.1 °F - 19.0 °F 75% 30.00 in 10.0 mi North - - N/A   Mostly Cloudy
5:53 AM 30.0 °F 25.2 °F 21.0 °F 69% 30.00 in 10.0 mi NNE 4.6 mph - N/A   Overcast
6:53 AM 28.9 °F - 21.0 °F 72% 29.99 in 10.0 mi Calm Calm - N/A   Overcast
7:53 AM 30.9 °F - 23.0 °F 72% 29.99 in 10.0 mi Calm Calm - N/A   Overcast
8:53 AM 35.1 °F - 26.1 °F 70% 29.98 in 10.0 mi Calm Calm - N/A   Overcast
9:53 AM 36.0 °F - 25.0 °F 64% 29.97 in 10.0 mi Calm Calm - N/A   Overcast
10:53 AM 37.9 °F - 21.9 °F 53% 29.96 in 10.0 mi Calm Calm - N/A   Overcast
11:53 AM 39.0 °F - 21.9 °F 50% 29.97 in 10.0 mi Calm Calm - N/A   Overcast
12:43 PM 37.4 °F 32.1 °F 28.4 °F 70% 29.91 in 2.5 mi WNW 6.9 mph - 0.00 in Snow Light Snow
12:50 PM 37.4 °F 32.8 °F 28.4 °F 70% 29.91 in 1.0 mi WNW 5.8 mph - 0.00 in Snow Light Snow
12:51 PM 37.0 °F 32.4 °F 28.9 °F 73% 29.96 in 1.0 mi WNW 5.8 mph - 0.00 in Snow Light Snow
12:58 PM 35.6 °F 30.7 °F 30.2 °F 81% 29.91 in 0.8 mi WNW 5.8 mph - 0.00 in Snow Light Snow
1:11 PM 35.6 °F 32.8 °F 30.2 °F 81% 29.90 in 1.0 mi WNW 3.5 mph - 0.00 in Snow Light Snow
1:17 PM 35.6 °F 31.7 °F 30.2 °F 81% 29.90 in 1.2 mi WNW 4.6 mph - 0.00 in Snow Light Snow
1:28 PM 37.4 °F 34.9 °F 30.2 °F 75% 29.90 in 3.0 mi West 3.5 mph - 0.01 in Snow Light Snow
1:50 PM 37.4 °F 33.8 °F 30.2 °F 75% 29.89 in 10.0 mi WNW 4.6 mph - 0.01 in   Overcast
1:53 PM 37.0 °F 34.5 °F 30.0 °F 76% 29.94 in 10.0 mi WNW 3.5 mph - 0.01 in   Overcast
2:05 PM 37.4 °F 33.8 °F 30.2 °F 75% 29.88 in 10.0 mi WNW 4.6 mph - N/A   Overcast
2:12 PM 37.4 °F 33.8 °F 30.2 °F 75% 29.88 in 10.0 mi NNW 4.6 mph - N/A   Overcast
2:53 PM 37.9 °F 35.5 °F 30.0 °F 73% 29.93 in 10.0 mi WNW 3.5 mph - N/A   Overcast
3:38 PM 37.4 °F - 28.4 °F 70% 29.87 in 10.0 mi Calm Calm - N/A   Overcast
3:53 PM 37.9 °F 35.5 °F 28.9 °F 70% 29.91 in 10.0 mi West 3.5 mph - N/A   Overcast
4:53 PM 37.0 °F - 30.0 °F 76% 29.90 in 9.0 mi Calm Calm - 0.00 in   Overcast
5:53 PM 37.0 °F 34.5 °F 30.9 °F 79% 29.89 in 10.0 mi NW 3.5 mph - N/A   Overcast
6:53 PM 36.0 °F 32.1 °F 30.9 °F 82% 29.90 in 10.0 mi North 4.6 mph - N/A   Overcast
7:34 PM 35.6 °F - 30.2 °F 81% 29.85 in 6.0 mi Calm Calm - 0.00 in Snow Light Snow
7:50 PM 35.6 °F - 30.2 °F 81% 29.84 in 6.0 mi Calm Calm - 0.00 in Snow Light Snow
7:53 PM 36.0 °F - 30.9 °F 82% 29.88 in 7.0 mi Calm Calm - 0.00 in   Overcast
8:53 PM 35.1 °F 32.2 °F 30.9 °F 85% 29.87 in 5.0 mi NW 3.5 mph - 0.00 in   Overcast
9:53 PM 35.1 °F - 30.9 °F 85% 29.86 in 6.0 mi Calm Calm - N/A   Overcast
10:48 PM 35.6 °F - 30.2 °F 81% 29.80 in 3.0 mi Calm Calm - 0.01 in Snow Light Snow
10:49 PM 35.1 °F - 30.9 °F 85% 29.83 in 3.0 mi Calm Calm - 0.01 in   Overcast
10:58 PM 35.6 °F - 30.2 °F 81% 29.79 in 2.5 mi Calm Calm - 0.00 in Snow Light Snow
11:33 PM 35.6 °F - 30.2 °F 81% 29.78 in 2.5 mi Calm Calm - 0.00 in   Overcast
11:42 PM 35.6 °F - 30.2 °F 81% 29.78 in 3.0 mi Calm Calm - 0.00 in   Overcast
11:53 PM 35.1 °F - 30.9 °F 85% 29.81 in 4.0 mi Calm Calm - 0.00 in   Overcast